Wind_Speed
25 26 27 27 28 28 25 22 21 21 21 22 22 21 20 21 20 20 20 19 18 18 17 16 16 16 16 16 15 16 15 14 14 13 13 12 11 11 10 10 10 10 9 9 9 9 9 9 9
26 27 28 29 30 28 25 23 23 23 23 24 23 23 22 22 22 21 21 21 20 20 19 18 17 17 17 17 16 16 16 15 15 14 14 14 13 12 12 11 11 11 11 11 11 11 10 10 10
29 29 30 31 31 29 26 25 25 25 26 26 25 25 24 23 23 22 22 22 22 21 20 20 19 18 18 18 18 18 17 16 16 16 15 15 15 14 13 13 12 12 12 12 12 12 12 12 12
31 32 33 33 32 29 28 27 27 27 27 28 28 27 26 25 24 23 23 24 23 23 22 21 21 20 20 19 19 19 18 18 17 16 16 16 16 16 15 15 14 14 14 14 13 13 13 14 14
34 34 35 35 33 31 30 29 29 29 29 29 29 28 28 26 26 25 24 24 24 24 23 23 22 22 21 21 20 19 19 19 19 18 17 17 18 17 17 16 16 15 15 14 14 15 15 14 14
35 35 36 36 34 32 32 31 31 31 31 31 31 31 30 29 28 27 26 26 26 25 25 25 24 24 23 22 22 21 21 21 20 19 19 19 18 18 18 18 17 17 16 15 15 16 16 15 15
36 37 37 36 35 34 33 33 33 33 33 33 34 33 32 31 31 30 29 28 27 27 26 26 26 25 25 24 24 23 22 22 21 21 20 20 20 19 19 19 19 18 18 17 17 17 17 17 16
37 39 38 38 37 36 34 35 35 35 35 36 36 36 34 34 33 33 31 30 29 28 28 28 28 27 27 26 26 25 24 23 23 23 22 21 21 21 20 20 19 19 19 19 19 18 18 18 17
38 40 39 38 38 37 36 37 37 38 37 37 37 37 37 36 35 34 33 32 31 31 30 30 30 29 29 28 28 27 26 25 25 24 23 23 23 22 22 22 21 21 20 19 20 20 19 19 19
39 41 39 39 39 39 39 39 39 39 39 39 39 38 38 38 37 36 36 34 34 33 33 32 31 31 30 30 29 29 28 27 27 26 25 25 24 24 23 23 23 22 21 21 21 21 20 20 20
40 40 39 40 40 40 40 40 40 40 40 40 39 39 39 39 39 38 38 37 36 35 34 34 34 33 32 32 31 30 29 29 28 28 27 26 26 25 25 25 24 23 22 22 22 22 22 21 21
39 39 39 39 40 41 41 41 40 40 40 41 41 40 40 40 39 40 39 39 38 37 36 35 35 35 34 34 33 32 31 30 30 29 29 28 27 27 26 26 25 25 24 24 23 23 23 23 22
40 39 39 40 40 40 41 41 41 40 40 41 41 41 41 41 41 41 41 40 40 39 38 37 37 37 36 36 35 34 33 32 32 31 31 31 29 29 28 28 27 26 26 25 25 24 24 25 25
40 39 39 40 40 41 42 42 42 40 40 41 41 41 42 42 42 42 42 41 41 41 41 39 38 38 37 36 36 36 35 34 34 34 33 33 31 31 31 30 30 29 28 28 27 27 27 26 26
41 41 41 40 41 42 43 44 43 41 42 42 41 42 42 43 43 43 43 43 42 42 42 42 41 40 39 39 38 38 37 36 36 35 35 35 34 33 33 32 32 31 30 30 29 29 28 28 27
42 43 42 41 42 42 44 44 42 42 43 42 42 42 43 43 44 44 44 44 43 43 43 44 43 42 41 40 40 40 38 38 38 37 37 36 36 35 35 34 34 33 33 32 31 31 30 30 29
43 44 43 42 42 43 44 44 42 42 43 43 43 43 44 44 45 45 45 45 45 44 44 45 44 43 42 42 42 41 40 40 40 38 38 38 37 37 36 36 35 35 35 35 34 33 32 32 32
43 44 44 43 43 44 44 44 42 42 43 43 43 44 44 45 45 46 47 47 47 46 46 46 46 45 44 44 44 43 43 42 42 41 40 39 39 38 38 37 37 37 37 36 36 36 35 34 33
44 44 44 43 43 44 44 43 42 43 43 43 43 45 45 46 47 48 48 48 48 47 47 47 47 47 47 46 46 46 45 45 44 43 43 41 41 41 40 40 40 39 39 39 37 37 37 36 35
45 45 44 44 44 45 44 43 43 43 43 43 43 44 45 46 47 48 48 49 49 48 47 48 48 48 48 47 47 47 47 47 47 46 45 45 44 43 43 42 42 41 41 40 39 38 38 38 37
45 45 45 45 46 47 46 46 44 44 44 44 43 43 45 45 46 47 49 49 49 48 48 48 49 50 49 48 49 49 50 49 49 49 48 46 46 46 45 44 44 43 42 42 41 40 40 39 39
45 44 45 46 46 48 48 48 45 44 44 43 43 43 43 44 45 46 48 49 49 48 47 48 49 50 50 50 50 50 49 50 50 50 49 49 48 47 47 46 45 44 44 43 42 42 41 41 41
44 43 44 45 46 47 47 49 46 45 44 43 42 42 42 43 44 45 46 47 48 48 48 48 48 49 50 50 50 51 51 51 51 51 51 51 51 50 49 48 48 46 46 45 45 44 44 43 43
42 42 43 44 44 46 45 47 47 44 43 43 42 42 42 42 43 43 44 46 46 47 47 47 47 48 49 50 50 51 51 51 52 52 52 52 52 51 51 50 50 50 49 48 47 46 45 45 44
40 41 43 44 44 45 42 44 44 42 42 42 42 42 42 42 43 43 43 44 44 44 45 46 47 47 48 49 49 50 51 52 52 52 53 53 53 53 52 52 52 51 51 50 50 48 47 47 46
38 39 40 42 44 44 42 43 41 40 41 41 42 43 43 43 43 43 43 44 43 43 44 44 45 47 47 48 48 48 49 50 50 51 51 52 53 53 54 52 52 52 52 52 51 50 49 49 47
36 37 38 41 42 43 43 41 40 39 40 40 42 43 43 43 43 44 44 44 44 43 43 44 45 47 48 48 48 48 48 49 50 51 51 52 53 53 54 54 53 53 53 53 52 52 52 51 51
35 35 36 39 41 42 42 41 39 39 38 39 40 41 42 43 43 43 44 45 45 44 44 44 45 47 48 48 49 48 47 48 49 50 51 52 53 53 53 54 54 54 54 54 54 54 54 54 53
34 34 36 38 41 42 42 42 40 39 39 39 39 41 42 42 42 43 44 44 45 45 45 45 45 46 47 48 49 48 48 48 49 49 50 51 52 53 54 53 54 54 54 55 56 56 55 54 54
32 33 35 37 39 41 42 41 40 40 40 40 40 40 41 41 41 42 43 44 44 45 45 46 47 46 46 47 48 49 49 49 50 50 51 51 51 52 52 53 53 54 55 55 56 56 56 56 55
Wind_Direction
254 253 252 252 254 255 257 257 257 257 257 257 257 257 256 255 255 255 254 253 252 252 252 253 254 252 251 250 249 247 246 247 247 246 247 246 248 251 254 255 255 255 256 260 262 258 256 257 255
254 254 253 253 254 256 258 258 257 256 257 257 257 256 255 254 254 255 253 252 252 252 252 252 253 252 250 250 249 247 246 246 247 247 247 248 250 252 253 256 256 256 255 256 260 260 256 258 259
255 255 255 255 255 257 258 257 256 255 255 256 257 257 256 255 254 253 253 252 252 252 252 252 252 252 251 250 250 249 248 247 248 249 247 248 250 251 253 255 256 258 257 257 257 258 257 259 261
256 255 255 256 256 257 257 256 255 254 255 255 256 256 256 255 254 253 252 252 251 251 251 252 252 251 250 249 249 249 248 248 249 250 249 248 250 252 252 255 256 257 257 257 256 257 259 261 260
256 256 255 256 257 257 257 256 255 254 253 254 255 255 254 253 253 252 252 252 251 250 250 251 251 249 248 248 248 249 250 249 250 250 249 250 250 251 252 253 254 254 254 255 257 257 260 258 256
257 258 257 257 257 257 256 255 255 253 252 253 253 253 253 252 252 252 252 252 251 250 249 249 249 249 248 247 248 249 250 250 250 250 249 250 250 250 251 252 251 251 252 254 258 259 259 258 258
258 258 258 258 257 256 256 255 254 253 251 251 252 252 251 251 252 252 252 252 251 249 248 247 247 248 248 248 249 250 250 250 250 250 251 250 250 250 251 252 251 251 251 254 257 259 259 260 258
259 259 259 258 258 257 256 255 254 254 252 250 251 251 251 251 251 250 250 249 250 249 248 247 247 248 248 248 249 250 250 250 250 250 250 250 250 250 250 251 250 249 251 253 256 258 259 259 258
260 259 259 259 258 257 256 255 255 254 253 251 251 251 250 250 249 249 248 247 248 248 248 248 248 247 248 248 248 250 249 249 249 249 249 250 250 250 250 250 249 249 250 253 255 257 258 257 257
262 261 261 259 258 257 255 255 255 255 254 252 252 251 250 249 248 247 247 248 248 248 248 247 247 247 247 248 248 249 249 249 248 248 249 249 250 250 250 250 249 250 251 253 255 256 257 257 257
263 262 261 259 258 258 256 255 254 254 253 252 251 250 248 248 247 247 246 246 247 247 247 247 247 247 247 247 248 249 247 248 247 247 247 249 249 250 250 250 249 250 251 252 254 254 256 256 255
265 263 261 259 258 258 256 255 252 252 252 252 251 249 248 247 247 246 246 245 245 245 246 246 247 248 247 248 248 249 248 247 247 246 246 247 248 248 248 250 251 251 251 252 253 254 255 254 254
264 263 261 259 258 257 256 255 254 252 251 251 250 249 248 247 247 247 246 245 245 245 245 246 246 247 248 247 247 247 247 245 245 246 247 248 247 247 248 249 251 252 252 253 253 254 255 256 254
265 263 261 259 257 256 255 255 254 252 252 252 251 250 249 247 246 246 246 246 245 245 245 245 246 247 247 248 247 247 247 246 246 246 247 247 247 248 248 249 250 252 253 254 254 255 256 256 255
264 263 261 260 258 256 256 254 254 253 253 253 252 251 250 248 247 246 246 246 245 245 245 244 245 245 246 247 248 247 247 248 247 247 247 248 247 249 250 249 250 251 253 254 255 256 256 256 256
263 262 261 260 259 258 257 256 254 254 253 253 252 251 250 248 247 246 246 246 245 246 246 245 245 245 246 247 248 247 247 248 248 247 248 249 249 250 250 250 251 252 253 254 255 256 256 257 258
263 263 262 260 259 258 257 257 254 254 254 253 252 251 249 248 247 246 246 245 245 245 245 246 246 245 246 247 247 247 247 247 247 247 248 248 249 250 250 251 251 253 253 253 254 255 256 258 259
265 265 263 261 260 260 260 259 256 254 253 252 250 250 250 249 248 247 246 245 244 244 245 246 246 246 246 247 247 246 246 246 247 247 248 248 248 248 249 251 252 252 253 253 254 255 256 257 257
265 264 263 261 260 260 260 259 257 255 253 251 250 250 249 249 247 246 246 246 244 245 245 246 246 245 246 246 246 246 247 248 249 249 249 248 248 248 249 252 253 253 253 253 255 256 256 256 257
264 263 262 261 260 261 260 258 256 255 253 252 250 250 250 249 247 247 246 246 245 246 245 245 246 245 245 246 246 247 248 249 248 248 248 248 249 249 248 250 252 253 253 254 254 255 255 256 256
263 263 262 262 261 261 261 257 255 254 254 253 252 251 251 250 249 248 247 246 246 246 246 245 246 245 244 245 246 247 248 249 249 248 248 248 249 250 250 250 252 252 253 254 255 256 256 256 256
263 263 262 261 261 260 260 259 254 255 255 255 254 253 253 252 250 250 248 247 247 247 247 246 245 246 245 245 246 247 248 248 249 249 249 249 249 250 250 250 251 252 253 254 255 256 257 256 257
264 263 262 261 260 260 259 259 256 255 255 255 256 254 253 252 250 250 249 248 248 247 248 247 246 246 247 246 247 248 248 249 249 249 249 250 249 250 250 250 250 251 252 254 255 256 256 257 257
262 262 261 260 259 259 259 260 258 256 256 256 256 255 254 252 250 249 249 248 247 247 248 248 248 247 247 247 248 248 249 248 248 248 248 248 249 250 250 251 252 253 253 254 255 256 256 257 257
261 260 260 259 259 260 260 260 260 258 257 256 255 255 255 253 251 250 249 249 248 248 249 249 249 249 248 248 249 250 249 248 247 247 248 248 249 250 251 251 252 252 253 253 254 255 255 256 257
260 258 259 260 261 261 260 260 261 260 258 256 255 255 255 254 252 250 249 249 249 249 249 250 249 249 249 249 250 250 250 249 249 248 249 249 250 251 250 251 252 252 253 254 254 254 255 256 257
261 257 258 260 262 262 261 261 261 261 260 257 255 255 255 255 253 252 251 250 250 250 251 251 250 249 249 249 250 251 251 251 250 250 249 250 251 250 250 251 252 252 253 253 253 254 255 256 257
262 261 258 258 260 263 262 261 260 260 261 259 257 256 256 255 254 253 252 251 250 250 251 251 251 250 250 250 250 251 251 251 252 252 252 251 250 250 251 251 252 252 253 254 254 255 256 256 258
261 260 259 259 259 261 262 262 261 262 261 260 259 257 256 256 254 253 252 251 251 251 251 251 251 251 251 251 251 251 251 251 251 251 252 252 251 251 251 252 252 252 253 254 255 256 256 257 258
264 262 260 260 260 261 262 263 262 262 261 261 260 258 256 256 255 253 252 251 251 251 250 250 250 251 251 251 251 251 252 251 251 252 251 251 251 251 252 253 253 253 253 254 255 256 256 257 258
Height
5796 5798 5799 5800 5801 5802 5804 5807 5808 5808 5809 5810 5811 5812 5813 5815 5817 5821 5820 5820 5821 5822 5823 5824 5825 5826 5827 5828 5829 5830 5831 5832 5833 5834 5835 5836 5837 5838 5839 5840 5841 5842 5843 5844 5845 5846 5846 5847 5847
5792 5793 5794 5795 5795 5797 5801 5803 5804 5804 5805 5806 5806 5808 5809 5811 5812 5814 5815 5816 5817 5818 5819 5821 5822 5823 5824 5825 5826 5827 5828 5829 5830 5831 5833 5834 5835 5836 5837 5838 5839 5840 5841 5842 5843 5844 5844 5845 5846
5787 5787 5789 5789 5790 5793 5796 5798 5799 5799 5800 5801 5802 5803 5805 5807 5808 5809 5811 5812 5813 5815 5816 5817 5818 5819 5821 5822 5823 5824 5825 5826 5827 5829 5830 5831 5832 5834 5835 5836 5837 5838 5839 5840 5841 5842 5842 5843 5844
5781 5782 5783 5784 5785 5789 5791 5793 5793 5794 5795 5796 5797 5798 5800 5802 5804 5805 5806 5807 5809 5810 5811 5813 5814 5816 5817 5818 5820 5821 5822 5823 5824 5825 5827 5828 5829 5831 5832 5833 5834 5835 5836 5837 5838 5839 5840 5841 5841
5775 5775 5776 5777 5780 5783 5785 5786 5787 5788 5789 5790 5792 5793 5795 5797 5798 5800 5801 5803 5804 5806 5807 5809 5810 5811 5813 5814 5816 5817 5818 5820 5821 5822 5823 5825 5826 5827 5829 5830 5831 5832 5833 5834 5835 5836 5837 5838 5839
5768 5768 5770 5771 5775 5777 5779 5780 5781 5782 5783 5784 5786 5787 5789 5791 5793 5794 5796 5798 5799 5801 5802 5804 5805 5807 5809 5810 5811 5813 5814 5816 5817 5818 5820 5821 5822 5824 5825 5826 5828 5829 5830 5831 5832 5833 5834 5835 5836
5761 5761 5762 5765 5767 5770 5772 5772 5774 5775 5777 5778 5779 5781 5783 5785 5787 5789 5790 5792 5794 5796 5797 5799 5800 5802 5804 5806 5807 5808 5810 5811 5813 5814 5815 5817 5818 5820 5821 5822 5824 5825 5827 5828 5829 5830 5831 5832 5833
5753 5754 5754 5757 5759 5762 5764 5764 5765 5767 5769 5771 5772 5774 5777 5779 5780 5782 5784 5786 5788 5790 5792 5793 5795 5797 5799 5800 5802 5803 5805 5806 5808 5810 5811 5812 5814 5815 5817 5819 5820 5821 5823 5824 5825 5826 5827 5828 5830
5744 5745 5746 5749 5751 5753 5754 5755 5757 5758 5760 5762 5764 5767 5769 5771 5773 5775 5777 5780 5782 5784 5786 5787 5789 5791 5793 5795 5796 5798 5800 5801 5803 5805 5806 5808 5809 5811 5813 5814 5816 5817 5819 5820 5821 5822 5823 5825 5826
5735 5735 5739 5741 5741 5743 5744 5745 5747 5749 5751 5753 5756 5758 5760 5763 5765 5767 5770 5772 5775 5777 5779 5781 5783 5785 5787 5789 5790 5792 5794 5796 5798 5799 5801 5803 5804 5806 5808 5810 5811 5813 5814 5816 5817 5818 5819 5821 5822
5725 5727 5730 5730 5731 5732 5734 5736 5737 5739 5742 5744 5747 5749 5751 5754 5756 5759 5762 5765 5767 5769 5772 5774 5776 5778 5780 5782 5784 5786 5788 5790 5792 5794 5796 5797 5799 5801 5803 5804 5806 5808 5809 5811 5812 5814 5815 5816 5817
5716 5718 5719 5721 5721 5722 5724 5726 5728 5730 5733 5735 5737 5739 5742 5745 5748 5750 5753 5756 5759 5761 5764 5766 5769 5771 5773 5775 5777 5780 5782 5784 5786 5787 5790 5792 5793 5795 5797 5799 5801 5803 5804 5806 5807 5809 5810 5811 5813
5707 5709 5710 5711 5711 5713 5714 5716 5718 5721 5723 5725 5727 5730 5733 5736 5739 5741 5744 5747 5750 5753 5756 5759 5761 5763 5766 5768 5770 5772 5775 5777 5779 5781 5783 5786 5787 5789 5791 5793 5795 5797 5799 5801 5802 5804 5805 5806 5807
5698 5699 5700 5701 5702 5703 5704 5706 5708 5712 5713 5715 5718 5721 5723 5726 5729 5732 5735 5738 5741 5744 5747 5750 5753 5756 5758 5759 5762 5765 5767 5770 5772 5774 5777 5779 5781 5783 5785 5787 5789 5791 5793 5795 5796 5798 5799 5801 5802
5688 5689 5690 5691 5693 5693 5694 5696 5700 5703 5704 5706 5708 5711 5714 5716 5719 5723 5726 5729 5732 5735 5738 5741 5744 5747 5750 5752 5755 5757 5760 5762 5765 5767 5769 5771 5774 5776 5778 5780 5782 5784 5786 5788 5790 5791 5793 5795 5796
5678 5678 5680 5683 5683 5683 5685 5687 5692 5692 5693 5696 5699 5701 5704 5706 5709 5712 5715 5719 5722 5725 5729 5732 5735 5738 5741 5744 5746 5749 5752 5754 5757 5759 5762 5764 5766 5769 5771 5773 5775 5777 5779 5781 5783 5785 5786 5788 5789
5667 5668 5670 5673 5673 5673 5674 5677 5682 5682 5683 5686 5688 5690 5693 5696 5699 5702 5705 5708 5712 5715 5719 5722 5725 5728 5731 5734 5737 5740 5743 5745 5748 5751 5753 5756 5758 5761 5763 5766 5768 5770 5772 5774 5776 5777 5779 5781 5782
5657 5658 5659 5661 5662 5662 5663 5667 5670 5671 5672 5675 5677 5679 5682 5685 5688 5691 5694 5697 5701 5705 5708 5712 5715 5718 5721 5724 5727 5730 5733 5736 5739 5742 5745 5747 5750 5752 5754 5757 5759 5762 5764 5766 5768 5770 5772 5773 5774
5646 5646 5647 5650 5651 5651 5652 5655 5658 5659 5661 5664 5666 5668 5671 5674 5676 5679 5683 5686 5690 5693 5697 5701 5704 5707 5711 5714 5717 5720 5723 5726 5729 5732 5735 5738 5740 5743 5745 5748 5750 5753 5755 5757 5759 5761 5763 5765 5766
5633 5634 5636 5638 5639 5639 5641 5643 5646 5648 5650 5653 5655 5657 5659 5662 5664 5668 5671 5675 5678 5682 5686 5689 5693 5696 5700 5702 5705 5709 5712 5715 5718 5721 5724 5727 5730 5733 5736 5739 5741 5743 5746 5748 5750 5752 5754 5756 5758
5622 5623 5625 5626 5627 5627 5628 5631 5635 5638 5639 5641 5644 5646 5648 5651 5653 5656 5660 5663 5666 5670 5674 5677 5681 5684 5688 5691 5694 5698 5701 5704 5707 5710 5713 5717 5720 5723 5726 5728 5731 5734 5736 5739 5741 5743 5745 5747 5749
5610 5613 5613 5613 5613 5614 5616 5617 5624 5626 5628 5631 5633 5635 5637 5640 5642 5645 5648 5651 5655 5658 5662 5665 5669 5672 5676 5679 5683 5686 5689 5692 5695 5698 5702 5705 5708 5711 5714 5718 5720 5723 5726 5728 5731 5733 5735 5737 5739
5599 5600 5600 5601 5600 5601 5603 5604 5611 5615 5617 5621 5623 5625 5626 5629 5631 5634 5636 5640 5643 5646 5650 5653 5657 5660 5664 5667 5671 5674 5677 5680 5682 5685 5689 5692 5696 5699 5702 5706 5709 5712 5715 5718 5720 5722 5724 5727 5729
5587 5588 5588 5588 5588 5589 5593 5594 5598 5603 5607 5610 5612 5614 5615 5617 5620 5622 5625 5628 5631 5634 5638 5641 5645 5648 5652 5655 5658 5661 5664 5667 5670 5673 5676 5679 5683 5687 5690 5694 5697 5700 5703 5706 5708 5711 5713 5715 5717
5576 5577 5577 5576 5576 5579 5584 5583 5587 5592 5595 5598 5600 5602 5604 5606 5609 5611 5614 5617 5620 5623 5627 5630 5633 5636 5640 5643 5646 5648 5651 5654 5657 5660 5663 5666 5670 5673 5677 5681 5685 5688 5691 5694 5696 5699 5702 5704 5706
5565 5566 5567 5566 5567 5570 5572 5573 5579 5582 5583 5586 5588 5590 5593 5595 5598 5601 5603 5606 5609 5612 5615 5618 5621 5625 5628 5631 5633 5636 5638 5641 5644 5647 5650 5654 5657 5661 5665 5668 5672 5675 5678 5681 5684 5687 5690 5692 5694
5555 5556 5558 5558 5557 5559 5561 5565 5568 5570 5572 5574 5577 5579 5581 5584 5587 5589 5592 5595 5598 5601 5604 5607 5610 5613 5616 5618 5621 5623 5626 5629 5631 5635 5638 5641 5644 5648 5651 5655 5659 5662 5665 5668 5671 5674 5677 5679 5681
5546 5547 5548 5547 5547 5548 5551 5555 5558 5560 5562 5564 5566 5568 5570 5573 5575 5578 5581 5584 5587 5590 5592 5595 5598 5601 5604 5606 5609 5611 5614 5617 5619 5622 5625 5628 5632 5635 5638 5642 5645 5649 5652 5654 5657 5660 5663 5666 5668
5537 5538 5537 5538 5538 5540 5541 5547 5549 5550 5551 5553 5555 5557 5559 5561 5564 5566 5569 5572 5575 5577 5580 5583 5586 5589 5591 5594 5597 5599 5602 5604 5607 5609 5612 5615 5618 5622 5625 5628 5632 5635 5638 5641 5644 5647 5649 5652 5654
5527 5528 5529 5529 5529 5530 5532 5538 5538 5540 5541 5542 5544 5546 5548 5550 5553 5555 5557 5560 5563 5565 5568 5571 5574 5576 5579 5582 5584 5587 5589 5592 5594 5597 5600 5602 5605 5609 5612 5615 5618 5621 5624 5627 5630 5633 5635 5637 5639